Regional Weather Roundup
Issued by NWS

Current Version | Previous Version | Text Only | Print | Product List | Glossary On
Versions: 1 2 3 4 5 6 7 8 9 10 11 12 13 14 15 16 17 18 19 20 21 22 23 24 25 26 27 28 29 30 31 32 33 34 35 36 37 38 39 40 41 42 43 44 45 46 47 48 49 50
000
ASUS43 KMKX 271120
RWRWI

WISCONSIN REGIONAL WEATHER ROUNDUP
NATIONAL WEATHER SERVICE MILWAUKEE/SULLIVAN WI
600 AM CDT FRI MAY 27 2022

NOTE: "FAIR" INDICATES FEW OR NO CLOUDS BELOW 12,000 FEET WITH NO
SIGNIFICANT WEATHER AND/OR OBSTRUCTIONS TO VISIBILITY.

WIZ001-002-006>008-014>016-023>028-271200-
NORTHWEST WISCONSIN

CITY           SKY/WX    TMP DP  RH WIND       PRES   REMARKS
SUPERIOR ARPT  CLEAR     39  39 100 SW5       29.93R
ASHLAND        CLEAR     42  41  96 SW5       29.92R
HAYWARD        MOCLDY    36  33  89 CALM      29.93R FOG
SIREN          CLOUDY    36  35  97 CALM      29.94R FOG
CUMBERLAND     FOG       43  41  93 CALM      29.93R VSB 1/4
RICE LAKE      PTCLDY    44  42  94 CALM      29.94R FOG
CHETEK         FOG       46  44  93 CALM      29.93R VSB 1/4
LADYSMITH        N/A     44  44 100 CALM      29.94R FOG
EAU CLAIRE     MOCLDY    41  40  96 CALM      29.92R
MENOMONIE        N/A     44  44  99 CALM      29.93R FOG
NEW RICHMOND   FOG       41  41  99 CALM      29.94R VSB 1/4
OSCEOLA        FOG       44  44 100 CALM      29.97R VSB<1/4
$$

WIZ003>005-009-010-017-018-271200-
NORTH CENTRAL WISCONSIN

CITY           SKY/WX    TMP DP  RH WIND       PRES   REMARKS
MANITOWISH WTR CLOUDY    46  46 100 N3        29.90R
ARBOR VITAE    HAZE      42  14  32 CALM      29.90R VSB 3/4
WOODRUFF       HAZE      42  14  32 CALM      29.90R VSB 3/4
RHINELANDER    CLEAR     44  42  93 CALM      29.89R
EAGLE RIVER    CLOUDY    42  42 100 CALM      29.89R
LAND O LAKES     N/A     48  46  92 N3        29.90R
PHILLIPS       CLEAR     42  42 100 CALM      29.90R
TOMAHAWK         N/A     42  41  95 CALM      29.91R
MEDFORD        CLEAR     42  42 100 NW3       29.90R
MERRILL        CLOUDY    46  46 100 NW5       29.88R
$$

WIZ029-030-035-036-043>047-271200-
CENTRAL WISCONSIN

CITY           SKY/WX    TMP DP  RH WIND       PRES   REMARKS
WAUSAU         CLOUDY    51  45  79 N7        29.86R
MOSINEE        CLOUDY    48  46  93 N7        29.88R
MARSHFIELD     CLEAR     47  46  97 N7        29.88R
STEVENS POINT  CLOUDY    52  47  83 N6        29.88R
WAUPACA        CLOUDY    54  50  87 N6        29.87R
WAUTOMA        CLOUDY    52  49  89 N7        29.85R
WISC RAPIDS    CLOUDY    52  46  80 N6        29.88R
CAMP DOUGLAS   CLOUDY    51  47  85 N7        29.85R
$$

WIZ011>013-019>022-031-037>040-048>050-271200-
NORTHEAST WISCONSIN

CITY           SKY/WX    TMP DP  RH WIND       PRES   REMARKS
ANTIGO         CLOUDY    48  47  94 N6        29.88R
SHAWANO        CLOUDY    53  51  93 N6        29.87R
OCONTO         CLOUDY    52  50  95 N6        29.85R
STURGEON BAY   CLOUDY    51  50  96 N12       29.84S
GREEN BAY      CLOUDY    54  48  80 N9        29.84R
MANITOWOC      CLOUDY    52  52 100 N8        29.82R
APPLETON       CLOUDY    52  48  87 N9        29.82S
CLINTONVILLE   NOT AVBL
OSHKOSH        CLOUDY    52  49  89 N9        29.83R
$$

WIZ032>034-041-042-053>061-271200-
SOUTHWEST WISCONSIN

CITY           SKY/WX    TMP DP  RH WIND       PRES   REMARKS
LA CROSSE      CLEAR     49  47  93 N5        29.89R
SPARTA         CLOUDY    46  45  99 NW5       29.90R
VIROQUA        CLEAR     48  48 100 N8        29.88R
BOSCOBEL       CLOUDY    56  49  77 N6        29.85R
PRAIRIE DU CHI CLOUDY    55  48  78 N7        29.86R
PLATTEVILLE    CLOUDY   N/A N/A N/A N14       29.83R
$$

WIZ056-057-062-063-064-067-068-271200-
SOUTH CENTRAL WISCONSIN

CITY           SKY/WX    TMP DP  RH WIND       PRES   REMARKS
REEDSBURG      CLOUDY    52  51  97 N8        29.85R
BARABOO/DELLS  CLOUDY    49  49 100 N5        29.85R FOG
LONE ROCK      CLOUDY    55  51  86 VRB5      29.84R
MINERAL POINT  CLOUDY    54  52  94 N16       29.82S
MADISON        CLOUDY    54  52  93 N10       29.81R
MIDDLETON      CLOUDY    55  53  92 N8        29.83R
WATERTOWN      CLOUDY    53  52  97 N7        29.81R
MONROE         CLOUDY    55  53  93 N13       29.80R FOG
JANESVILLE     CLOUDY    55  55 100 NE9       29.78R
$$

WIZ051-052-058>065-066-070>072-271200-
SOUTHEAST WISCONSIN

CITY           SKY/WX    TMP DP  RH WIND       PRES   REMARKS
MILWAUKEE      CLOUDY    53  48  83 N13G22    29.79R
WAUKESHA       CLOUDY    50  48  93 N12G17    29.80R
MILWAUKEE/TIMM CLOUDY    52  45  76 N8        29.81R
RACINE         CLOUDY    51  47  86 N16G28    29.80R
KENOSHA        CLOUDY    54  48  80 N12       29.78S
FOND DU LAC    CLOUDY    54  50  86 NE12      29.82R
SHEBOYGAN      CLOUDY    54  51  90 N7        29.81R
WEST BEND      CLOUDY    52  48  87 N6        29.81S
JUNEAU         CLOUDY    52  52 100 N5        29.83R
$$

LSZ147-162-271200-
LAKE SUPERIOR

STATION/POSITION TIME  TEMP    WIND        PRES    WAVE
                       AIR SEA DIR/SP/G            HT/PER
                 (UTC) (F)     (DEG/KT/KT) (MB)    (FT/S)
$$

LMZ867-665-643>646-271200-
LAKE MICHIGAN

STATION/POSITION TIME  TEMP    WIND        PRES    WAVE
                       AIR SEA DIR/SP/G            HT/PER
                 (UTC) (F)     (DEG/KT/KT) (MB)    (FT/S)
$$

TC  - TEMPERATURE IN CELSIUS
VSB - VISIBILITY IN STATUTE MILES
WCI - WIND CHILL INDEX
HX  - HEAT INDEX




USA.gov is the U.S. government's official web portal to all federal, state and local government web resources and services.